Location: ??????????
(54.8537°N, 38.8755°E)
Time: 22:31:22
(UTC+00:00)

Transit 2A Rocket - Pass Details

Date: 17 September 2024
Orbit: 582 x 908 km, 66.7° (Epoch: 09 October)

Event Time Altitude Azimuth Distance (km) Brightness Sun altitude
Exits shadow 21:28:44 53° 33° (NNE) 1,113 5.9 -33.3°
Drops below altitude 10° 21:33:18 10° 42° (NE) 2,589 8.3 -33.3°
Sets 21:35:48 0° 44° (NE) 3,513 9.1 -33.2°
